リニア彗星

C/2007 G1 ( LINEAR )

English version
Home page
Updated on March 12, 2009

---------------------------------------------------------------------

・ プロフィール

発見日 2007年4月10日
発見光度 18.6等
発見者 Lincoln Laboratory Near-Earth Asteroid Research project

・ 写真集

・ 軌道要素

The following orbital elements are taken from MPC 62270:

Epoch 2008 Nov. 30.0 TT = JDT 2454800.5
T 2008 Nov. 16.3150 TT                                  MPC
q   2.647148             (2000.0)            P               Q
z  -0.000653       Peri.  223.9830      -0.1175034      +0.1531395
 +/-0.000001       Node    78.9949      -0.3754557      +0.9078506
e   1.001729       Incl.   88.3309      -0.9193617      -0.3903274
From 1276 observations 2007 Apr. 10-2008 Mar. 9, mean residual 0".5.

・ 星図

・ 光度変化

        m1 = 5.5 + 5 logΔ + 10.0 log r

---------------------------------------------------------------------

軌道要素はMPCのEphemerides and Orbital Elementsに掲載されたものです。
星図は StellaNavigator Ver.2.0 for Windows (アストロアーツ 編著 / アスキー出版局刊) で作成したものです。
光度グラフはComet for Windowsで作成したものです。

---------------------------------------------------------------------

Copyright(C) Seiichi Yoshida (comet@aerith.net). All rights reserved.